Regional Weather Roundup
Issued by NWS Glasgow, MT

Home | Current Version | Previous Version | Text Only | Print | Product List | Glossary On
Versions: 1 2 3 4 5 6 7 8 9 10 11 12 13 14 15 16 17 18 19 20 21 22 23 24 25 26 27 28 29 30 31 32 33 34 35 36 37 38 39 40 41 42 43 44 45 46 47 48 49 50
000
ASUS45 KGGW 291815
RWRGGW
HOURLY REGIONAL WEATHER ROUNDUP FOR NORTHEAST MONTANA
NATIONAL WEATHER SERVICE GLASGOW MONTANA
1200 PM MDT WED JUL 29 2015

NOTE: "FAIR" INDICATES FEW OR NO CLOUDS BELOW 12,000 FEET WITH NO
SIGNIFICANT WEATHER AND/OR OBSTRUCTIONS TO VISISBILITY.

NORTHEAST MONTANA


CITY           SKY/WX    TMP DP  RH WIND       PRES   REMARKS
GLASGOW        SUNNY     76  46  34 NW13G20   30.12S
6HR MIN TEMP:  52; 6HR MAX TEMP:  77;

PLENTYWOOD       N/A     75  47  36 W17         N/A
WOLF POINT     MOSUNNY   79  48  33 W16       30.10F
JORDAN           N/A     77  43  29 NW15      30.16S
WINNETT          N/A     75  41  29 SW12        N/A
SIDNEY         SUNNY    N/A N/A N/A W21G26    30.08F
GLENDIVE       SUNNY     77  46  33 W16G22    30.14F
MALTA            N/A     77  49  37 W8          N/A

FORT PECK REPORTS


CITY           SKY/WX    TMP DP  RH WIND       PRES   REMARKS
FORT PECK        N/A     74  51  44 W12         N/A
THE PINES        N/A     77  45  32 W7          N/A

SOUTHEAST MONTANA


CITY           SKY/WX    TMP DP  RH WIND       PRES   REMARKS
BILLINGS       MOSUNNY   76  34  21 W17G25    30.25F
MILES CITY     SUNNY     79  41  25 W17G25    30.17F
BAKER          SUNNY     78  40  25 W21G28    30.18F
LIVINGSTON     SUNNY     73  37  27 W16G24    30.30F

CENTRAL MONTANA


CITY           SKY/WX    TMP DP  RH WIND       PRES   REMARKS
HAVRE          SUNNY     73  48  41 SW13      30.15S
LEWISTOWN      MOSUNNY   72  40  31 VRB7      30.25S
GREAT FALLS    SUNNY     75  37  25 W13G22    30.21F
CUT BANK       SUNNY     75  35  23 N13G21    30.18F
HELENA         SUNNY     74  37  26 W12G23    30.27F
BUTTE          SUNNY     64  32  30 NE7       30.38S
BOZEMAN        SUNNY     67  43  41 NW5       30.33F

WESTERN MONTANA


CITY           SKY/WX    TMP DP  RH WIND       PRES   REMARKS
MISSOULA       SUNNY     66  42  41 SW3       30.30F
KALISPELL      NOT AVBL

NORTH DAKOTA


CITY           SKY/WX    TMP DP  RH WIND       PRES   REMARKS
WILLISTON      SUNNY     78  48  34 W22G29    30.05S
DICKINSON      PTSUNNY   75  46  35 W16G28    30.11S
MINOT          FAIR      78  52  40 W23G35    29.95S
BISMARCK       MOSUNNY   79  48  33 NW23G35   30.04R

SOUTHERN SASKATCHEWAN


CITY           SKY/WX    TMP DP  RH WIND       PRES   REMARKS
REGINA         MOSUNNY   73  59  60 W17G28    29.97R
MOOSE JAW      MOSUNNY   73  57  56 NW16G24   30.00
ESTEVAN        MOSUNNY   75  55  50 W20G31    29.97S
SWIFT CURRENT  SUNNY     73  50  43 W13G24    30.08R



USA.gov is the U.S. government's official web portal to all federal, state and local government web resources and services.